Time,TemperatureF,DewpointF,PressureIn,WindDirection,WindDirectionDegrees,WindSpeedMPH,WindSpeedGustMPH,Humidity,HourlyPrecipIn,Conditions,Clouds,dailyrainin,SoftwareType,DateUTC
2013-09-20 00:13:00,67.0,-99.9,-100.00,SSE,155,0.0,1.0,-999,0.07,,,0.56,,2013-09-20 05:13:00,
2013-09-20 00:23:00,67.0,-99.9,-100.00,SSE,155,0.0,1.0,-999,0.07,,,0.56,,2013-09-20 05:23:00,
2013-09-20 00:43:00,67.0,-99.9,-100.00,SSE,166,0.0,0.0,-999,0.05,,,0.59,,2013-09-20 05:43:00,
2013-09-20 00:53:00,67.0,-99.9,-100.00,SSE,166,0.0,0.0,-999,0.05,,,0.59,,2013-09-20 05:53:00,
2013-09-20 01:12:00,67.0,-99.9,-100.00,SSW,200,0.0,1.0,-999,0.06,,,0.62,,2013-09-20 06:12:00,
2013-09-20 01:22:00,67.0,-99.9,-100.00,SSW,200,0.0,1.0,-999,0.06,,,0.62,,2013-09-20 06:22:00,
2013-09-20 01:43:00,67.0,-99.9,-100.00,SW,229,0.0,1.0,-999,0.03,,,0.62,,2013-09-20 06:43:00,
2013-09-20 01:52:00,67.0,-99.9,-100.00,SW,229,0.0,1.0,-999,0.03,,,0.62,,2013-09-20 06:52:00,
2013-09-20 02:12:00,66.0,-99.9,-100.00,SSW,213,0.0,0.0,-999,0.00,,,0.62,,2013-09-20 07:12:00,
2013-09-20 02:23:00,66.0,-99.9,-100.00,SSW,213,0.0,0.0,-999,0.00,,,0.62,,2013-09-20 07:23:00,
2013-09-20 02:42:00,66.0,-99.9,-100.00,SW,223,0.0,1.0,-999,0.00,,,0.62,,2013-09-20 07:42:00,
2013-09-20 02:53:00,66.0,-99.9,-100.00,SW,223,0.0,1.0,-999,0.00,,,0.62,,2013-09-20 07:53:00,
2013-09-20 03:12:00,66.0,-99.9,-100.00,WSW,242,0.0,3.0,-999,0.00,,,0.62,,2013-09-20 08:12:00,
2013-09-20 03:22:00,66.0,-99.9,-100.00,WSW,242,0.0,3.0,-999,0.00,,,0.62,,2013-09-20 08:22:00,
2013-09-20 03:42:00,67.0,-99.9,-100.00,SW,235,4.0,11.0,-999,0.01,,,0.63,,2013-09-20 08:42:00,
2013-09-20 04:12:00,67.0,-99.9,-100.00,SW,217,2.0,6.0,-999,0.01,,,0.63,,2013-09-20 09:12:00,
2013-09-20 04:22:00,67.0,-99.9,-100.00,SW,217,2.0,6.0,-999,0.01,,,0.63,,2013-09-20 09:22:00,
2013-09-20 04:44:00,67.0,-99.9,-100.00,SW,233,1.0,4.0,-999,0.00,,,0.63,,2013-09-20 09:44:00,
2013-09-20 04:54:00,67.0,-99.9,-100.00,SW,233,1.0,4.0,-999,0.00,,,0.63,,2013-09-20 09:54:00,
2013-09-20 05:13:00,67.0,-99.9,-100.00,SW,235,5.0,9.0,-999,0.00,,,0.63,,2013-09-20 10:13:00,
2013-09-20 05:23:00,67.0,-99.9,-100.00,SW,235,5.0,9.0,-999,0.00,,,0.63,,2013-09-20 10:23:00,
2013-09-20 05:42:00,68.0,-99.9,-100.00,WSW,244,8.0,11.0,-999,0.00,,,0.63,,2013-09-20 10:42:00,
2013-09-20 05:53:00,68.0,-99.9,-100.00,WSW,244,8.0,11.0,-999,0.00,,,0.63,,2013-09-20 10:53:00,
2013-09-20 06:12:00,68.0,-99.9,-100.00,WSW,245,9.0,12.0,-999,0.00,,,0.63,,2013-09-20 11:12:00,
2013-09-20 06:23:00,68.0,-99.9,-100.00,WSW,245,9.0,12.0,-999,0.00,,,0.63,,2013-09-20 11:23:00,
2013-09-20 06:42:00,68.0,-99.9,-100.00,WSW,246,10.0,15.0,-999,0.00,,,0.63,,2013-09-20 11:42:00,
2013-09-20 06:52:00,68.0,-99.9,-100.00,WSW,246,10.0,15.0,-999,0.00,,,0.63,,2013-09-20 11:52:00,
2013-09-20 07:12:00,65.0,-99.9,-100.00,West,279,8.0,13.0,-999,0.00,,,0.63,,2013-09-20 12:12:00,
2013-09-20 07:22:00,65.0,-99.9,-100.00,West,279,8.0,13.0,-999,0.00,,,0.63,,2013-09-20 12:22:00,
2013-09-20 07:43:00,64.0,-99.9,-100.00,West,265,5.0,9.0,-999,0.00,,,0.63,,2013-09-20 12:43:00,
2013-09-20 07:52:00,64.0,-99.9,-100.00,West,265,5.0,9.0,-999,0.00,,,0.63,,2013-09-20 12:52:00,
2013-09-20 08:12:00,63.0,-99.9,-100.00,WSW,258,5.0,7.0,-999,0.00,,,0.63,,2013-09-20 13:12:00,
2013-09-20 08:22:00,63.0,-99.9,-100.00,WSW,258,5.0,7.0,-999,0.00,,,0.63,,2013-09-20 13:22:00,
2013-09-20 08:42:00,63.0,-99.9,-100.00,WSW,244,7.0,11.0,-999,0.00,,,0.63,,2013-09-20 13:42:00,
2013-09-20 08:53:00,63.0,-99.9,-100.00,WSW,244,7.0,11.0,-999,0.00,,,0.63,,2013-09-20 13:53:00,
2013-09-20 09:11:00,62.0,-99.9,-100.00,West,264,6.0,10.0,-999,0.00,,,0.63,,2013-09-20 14:11:00,
2013-09-20 09:22:00,62.0,-99.9,-100.00,West,264,6.0,10.0,-999,0.00,,,0.63,,2013-09-20 14:22:00,
2013-09-20 09:43:00,62.0,-99.9,-100.00,WSW,257,6.0,11.0,-999,0.00,,,0.63,,2013-09-20 14:43:00,
2013-09-20 09:52:00,62.0,-99.9,-100.00,WSW,257,6.0,11.0,-999,0.00,,,0.63,,2013-09-20 14:52:00,
2013-09-20 10:12:00,62.0,-99.9,-100.00,WNW,283,7.0,11.0,-999,0.00,,,0.63,,2013-09-20 15:12:00,
2013-09-20 10:22:00,62.0,-99.9,-100.00,WNW,283,7.0,11.0,-999,0.00,,,0.63,,2013-09-20 15:22:00,
2013-09-20 10:44:00,63.0,-99.9,-100.00,West,274,5.0,14.0,-999,0.00,,,0.63,,2013-09-20 15:44:00,
2013-09-20 10:54:00,63.0,-99.9,-100.00,West,274,5.0,14.0,-999,0.00,,,0.63,,2013-09-20 15:54:00,
2013-09-20 11:13:00,64.0,-99.9,-100.00,West,271,7.0,12.0,-999,0.00,,,0.63,,2013-09-20 16:13:00,
2013-09-20 11:23:00,64.0,-99.9,-100.00,West,271,7.0,12.0,-999,0.00,,,0.63,,2013-09-20 16:23:00,
2013-09-20 11:43:00,64.0,-99.9,-100.00,WNW,295,10.0,16.0,-999,0.00,,,0.63,,2013-09-20 16:43:00,
2013-09-20 11:53:00,64.0,-99.9,-100.00,WNW,295,10.0,16.0,-999,0.00,,,0.63,,2013-09-20 16:53:00,
2013-09-20 12:00:00,66.0,-99.9,-100.00,West,277,9.0,18.0,-999,0.00,,,0.63,,2013-09-20 17:00:00,
2013-09-20 12:13:00,65.0,-99.9,-100.00,WNW,292,7.0,13.0,-999,0.00,,,0.63,,2013-09-20 17:13:00,
2013-09-20 12:24:00,65.0,-99.9,-100.00,WNW,292,7.0,13.0,-999,0.00,,,0.63,,2013-09-20 17:24:00,
2013-09-20 12:43:00,66.0,-99.9,-100.00,West,277,9.0,18.0,-999,0.00,,,0.63,,2013-09-20 17:43:00,
2013-09-20 12:53:00,66.0,-99.9,-100.00,West,277,9.0,18.0,-999,0.00,,,0.63,,2013-09-20 17:53:00,
2013-09-20 13:42:00,67.0,-99.9,-100.00,West,263,12.0,16.0,-999,0.00,,,0.63,,2013-09-20 18:42:00,
2013-09-20 13:52:00,67.0,-99.9,-100.00,West,263,12.0,16.0,-999,0.00,,,0.63,,2013-09-20 18:52:00,
2013-09-20 14:12:00,66.0,-99.9,-100.00,WSW,256,13.0,22.0,-999,0.00,,,0.63,,2013-09-20 19:12:00,
2013-09-20 14:22:00,66.0,-99.9,-100.00,WSW,256,13.0,22.0,-999,0.00,,,0.63,,2013-09-20 19:22:00,
2013-09-20 14:42:00,67.0,-99.9,-100.00,WSW,255,8.0,11.0,-999,0.00,,,0.63,,2013-09-20 19:42:00,
2013-09-20 14:53:00,67.0,-99.9,-100.00,WSW,255,8.0,11.0,-999,0.00,,,0.63,,2013-09-20 19:53:00,
2013-09-20 15:12:00,67.0,-99.9,-100.00,WSW,243,8.0,15.0,-999,0.00,,,0.63,,2013-09-20 20:12:00,
2013-09-20 15:22:00,67.0,-99.9,-100.00,WSW,243,8.0,15.0,-999,0.00,,,0.63,,2013-09-20 20:22:00,
2013-09-20 15:42:00,66.0,-99.9,-100.00,WSW,254,9.0,11.0,-999,0.00,,,0.63,,2013-09-20 20:42:00,
2013-09-20 15:52:00,66.0,-99.9,-100.00,WSW,254,9.0,11.0,-999,0.00,,,0.63,,2013-09-20 20:52:00,
2013-09-20 16:12:00,66.0,-99.9,-100.00,WNW,290,7.0,11.0,-999,0.00,,,0.63,,2013-09-20 21:12:00,
2013-09-20 16:22:00,66.0,-99.9,-100.00,WNW,290,7.0,11.0,-999,0.00,,,0.63,,2013-09-20 21:22:00,
2013-09-20 16:30:00,66.0,-99.9,-100.00,WNW,285,10.0,16.0,-999,0.00,,,0.63,,2013-09-20 21:30:00,
2013-09-20 16:45:00,66.0,-99.9,-100.00,WNW,285,7.0,12.0,-999,0.00,,,0.63,,2013-09-20 21:45:00,
2013-09-20 16:55:00,66.0,-99.9,-100.00,WNW,285,7.0,12.0,-999,0.00,,,0.63,,2013-09-20 21:55:00,
2013-09-20 17:14:00,66.0,-99.9,-100.00,WNW,285,10.0,16.0,-999,0.00,,,0.63,,2013-09-20 22:14:00,
2013-09-20 17:24:00,66.0,-99.9,-100.00,WNW,285,10.0,16.0,-999,0.00,,,0.63,,2013-09-20 22:24:00,
2013-09-20 18:13:00,64.0,-99.9,-100.00,WNW,301,7.0,11.0,-999,0.00,,,0.63,,2013-09-20 23:13:00,
2013-09-20 18:23:00,64.0,-99.9,-100.00,WNW,301,7.0,11.0,-999,0.00,,,0.63,,2013-09-20 23:23:00,
2013-09-20 18:43:00,64.0,-99.9,-100.00,WNW,286,7.0,12.0,-999,0.00,,,0.63,,2013-09-20 23:43:00,
2013-09-20 18:53:00,64.0,-99.9,-100.00,WNW,286,7.0,12.0,-999,0.00,,,0.63,,2013-09-20 23:53:00,
2013-09-20 19:12:00,64.0,-99.9,-100.00,West,278,5.0,7.0,-999,0.00,,,0.63,,2013-09-21 00:12:00,
2013-09-20 19:22:00,64.0,-99.9,-100.00,West,278,5.0,7.0,-999,0.00,,,0.63,,2013-09-21 00:22:00,
2013-09-20 19:42:00,64.0,-99.9,-100.00,WSW,255,4.0,8.0,-999,0.00,,,0.63,,2013-09-21 00:42:00,
2013-09-20 19:52:00,64.0,-99.9,-100.00,WSW,255,4.0,8.0,-999,0.00,,,0.63,,2013-09-21 00:52:00,
2013-09-20 20:12:00,64.0,-99.9,-100.00,West,261,5.0,8.0,-999,0.00,,,0.30,,2013-09-21 01:12:00,
2013-09-20 20:22:00,64.0,-99.9,-100.00,West,261,5.0,8.0,-999,0.00,,,0.30,,2013-09-21 01:22:00,
2013-09-20 20:42:00,64.0,-99.9,-100.00,WSW,254,5.0,8.0,-999,0.00,,,0.29,,2013-09-21 01:42:00,
2013-09-20 20:52:00,64.0,-99.9,-100.00,WSW,254,5.0,8.0,-999,0.00,,,0.29,,2013-09-21 01:52:00,
2013-09-20 21:12:00,64.0,-99.9,-100.00,WSW,249,6.0,9.0,-999,0.00,,,0.29,,2013-09-21 02:12:00,
2013-09-20 21:22:00,64.0,-99.9,-100.00,WSW,249,6.0,9.0,-999,0.00,,,0.29,,2013-09-21 02:22:00,
2013-09-20 21:42:00,64.0,-99.9,-100.00,WSW,243,8.0,12.0,-999,0.00,,,0.25,,2013-09-21 02:42:00,
2013-09-20 21:52:00,64.0,-99.9,-100.00,WSW,243,8.0,12.0,-999,0.00,,,0.25,,2013-09-21 02:52:00,
2013-09-20 22:12:00,63.0,-99.9,-100.00,WSW,251,5.0,9.0,-999,0.00,,,0.21,,2013-09-21 03:12:00,
2013-09-20 22:22:00,63.0,-99.9,-100.00,WSW,251,5.0,9.0,-999,0.00,,,0.21,,2013-09-21 03:22:00,
2013-09-20 22:44:00,62.0,-99.9,-100.00,WNW,289,5.0,6.0,-999,0.00,,,0.21,,2013-09-21 03:44:00,
2013-09-20 22:55:00,62.0,-99.9,-100.00,WNW,289,5.0,6.0,-999,0.00,,,0.21,,2013-09-21 03:55:00,
2013-09-20 23:14:00,61.0,-99.9,-100.00,West,275,5.0,7.0,-999,0.00,,,0.14,,2013-09-21 04:14:00,
2013-09-20 23:24:00,61.0,-99.9,-100.00,West,275,5.0,7.0,-999,0.00,,,0.14,,2013-09-21 04:24:00,
2013-09-20 23:44:00,61.0,-99.9,-100.00,WNW,283,7.0,10.0,-999,0.00,,,0.09,,2013-09-21 04:44:00,
2013-09-20 23:54:00,61.0,-99.9,-100.00,WNW,283,7.0,10.0,-999,0.00,,,0.09,,2013-09-21 04:54:00,